index,time,SiteAddr,SiteName,app,area,date,device_id,fw_ver,gps_alt,gps_fix,gps_lat,gps_lon,gps_num,hcho,model,name,s_d0,s_d1,s_d2,s_h0,s_t0,timestamp
0,11:43:19,桃園市八德區永豐路609號,桃園市市立永豐高中附設國中(2019),AirBox,taoyuan,2024-03-21,08BEAC0A01AA,v1.06,2.0,1.0,24.9751,121.269826,9.0,0,AI-1003WN,桃園市桃園區永豐高中附設國中,20.0,21.0,14.0,63.0,23.0,2024-03-21T11:43:19Z
1,11:49:01,桃園市八德區永豐路609號,桃園市市立永豐高中附設國中(2019),AirBox,taoyuan,2024-03-21,08BEAC0A01AA,v1.06,2.0,1.0,24.9751,121.269826,9.0,0,AI-1003WN,桃園市桃園區永豐高中附設國中,21.0,22.0,15.0,64.0,23.0,2024-03-21T11:49:01Z
2,11:54:42,桃園市八德區永豐路609號,桃園市市立永豐高中附設國中(2019),AirBox,taoyuan,2024-03-21,08BEAC0A01AA,v1.06,2.0,1.0,24.9751,121.269826,9.0,0,AI-1003WN,桃園市桃園區永豐高中附設國中,25.0,27.0,18.0,64.0,22.8,2024-03-21T11:54:42Z
3,12:00:25,桃園市八德區永豐路609號,桃園市市立永豐高中附設國中(2019),AirBox,taoyuan,2024-03-21,08BEAC0A01AA,v1.06,2.0,1.0,24.9751,121.269826,9.0,0,AI-1003WN,桃園市桃園區永豐高中附設國中,26.0,27.0,18.0,64.0,22.8,2024-03-21T12:00:25Z
4,12:06:05,桃園市八德區永豐路609號,桃園市市立永豐高中附設國中(2019),AirBox,taoyuan,2024-03-21,08BEAC0A01AA,v1.06,2.0,1.0,24.9751,121.269826,9.0,0,AI-1003WN,桃園市桃園區永豐高中附設國中,23.0,24.0,16.0,64.0,22.7,2024-03-21T12:06:05Z
5,12:11:46,桃園市八德區永豐路609號,桃園市市立永豐高中附設國中(2019),AirBox,taoyuan,2024-03-21,08BEAC0A01AA,v1.06,2.0,1.0,24.9751,121.269826,9.0,0,AI-1003WN,桃園市桃園區永豐高中附設國中,20.0,21.0,14.0,64.0,22.6,2024-03-21T12:11:46Z
6,12:17:28,桃園市八德區永豐路609號,桃園市市立永豐高中附設國中(2019),AirBox,taoyuan,2024-03-21,08BEAC0A01AA,v1.06,2.0,1.0,24.9751,121.269826,9.0,0,AI-1003WN,桃園市桃園區永豐高中附設國中,20.0,20.0,14.0,64.0,22.6,2024-03-21T12:17:28Z
7,12:23:08,桃園市八德區永豐路609號,桃園市市立永豐高中附設國中(2019),AirBox,taoyuan,2024-03-21,08BEAC0A01AA,v1.06,2.0,1.0,24.9751,121.269826,9.0,0,AI-1003WN,桃園市桃園區永豐高中附設國中,20.0,20.0,14.0,64.0,22.6,2024-03-21T12:23:08Z
8,12:28:49,桃園市八德區永豐路609號,桃園市市立永豐高中附設國中(2019),AirBox,taoyuan,2024-03-21,08BEAC0A01AA,v1.06,2.0,1.0,24.9751,121.269826,9.0,0,AI-1003WN,桃園市桃園區永豐高中附設國中,19.0,20.0,14.0,65.0,22.7,2024-03-21T12:28:49Z
9,12:39:41,桃園市八德區永豐路609號,桃園市市立永豐高中附設國中(2019),AirBox,taoyuan,2024-03-21,08BEAC0A01AA,v1.06,2.0,1.0,24.9751,121.269826,9.0,0,AI-1003WN,桃園市桃園區永豐高中附設國中,20.0,21.0,14.0,65.0,22.8,2024-03-21T12:39:41Z
10,12:45:24,桃園市八德區永豐路609號,桃園市市立永豐高中附設國中(2019),AirBox,taoyuan,2024-03-21,08BEAC0A01AA,v1.06,2.0,1.0,24.9751,121.269826,9.0,0,AI-1003WN,桃園市桃園區永豐高中附設國中,20.0,20.0,15.0,64.0,22.8,2024-03-21T12:45:24Z
11,12:51:07,桃園市八德區永豐路609號,桃園市市立永豐高中附設國中(2019),AirBox,taoyuan,2024-03-21,08BEAC0A01AA,v1.06,2.0,1.0,24.9751,121.269826,9.0,0,AI-1003WN,桃園市桃園區永豐高中附設國中,23.0,24.0,16.0,64.0,22.8,2024-03-21T12:51:07Z
12,12:56:50,桃園市八德區永豐路609號,桃園市市立永豐高中附設國中(2019),AirBox,taoyuan,2024-03-21,08BEAC0A01AA,v1.06,2.0,1.0,24.9751,121.269826,9.0,0,AI-1003WN,桃園市桃園區永豐高中附設國中,23.0,25.0,16.0,64.0,22.8,2024-03-21T12:56:50Z
13,13:02:32,桃園市八德區永豐路609號,桃園市市立永豐高中附設國中(2019),AirBox,taoyuan,2024-03-21,08BEAC0A01AA,v1.06,2.0,1.0,24.9751,121.269826,9.0,0,AI-1003WN,桃園市桃園區永豐高中附設國中,21.0,22.0,15.0,64.0,22.8,2024-03-21T13:02:32Z
14,13:08:13,桃園市八德區永豐路609號,桃園市市立永豐高中附設國中(2019),AirBox,taoyuan,2024-03-21,08BEAC0A01AA,v1.06,2.0,1.0,24.9751,121.269826,9.0,0,AI-1003WN,桃園市桃園區永豐高中附設國中,23.0,24.0,16.0,65.0,22.7,2024-03-21T13:08:13Z
15,13:13:55,桃園市八德區永豐路609號,桃園市市立永豐高中附設國中(2019),AirBox,taoyuan,2024-03-21,08BEAC0A01AA,v1.06,2.0,1.0,24.9751,121.269826,9.0,0,AI-1003WN,桃園市桃園區永豐高中附設國中,22.0,23.0,15.0,65.0,22.7,2024-03-21T13:13:55Z
16,13:19:36,桃園市八德區永豐路609號,桃園市市立永豐高中附設國中(2019),AirBox,taoyuan,2024-03-21,08BEAC0A01AA,v1.06,2.0,1.0,24.9751,121.269826,9.0,0,AI-1003WN,桃園市桃園區永豐高中附設國中,25.0,26.0,17.0,65.0,22.7,2024-03-21T13:19:36Z
17,13:25:17,桃園市八德區永豐路609號,桃園市市立永豐高中附設國中(2019),AirBox,taoyuan,2024-03-21,08BEAC0A01AA,v1.06,2.0,1.0,24.9751,121.269826,9.0,0,AI-1003WN,桃園市桃園區永豐高中附設國中,27.0,28.0,18.0,65.0,22.7,2024-03-21T13:25:17Z
18,13:30:58,桃園市八德區永豐路609號,桃園市市立永豐高中附設國中(2019),AirBox,taoyuan,2024-03-21,08BEAC0A01AA,v1.06,2.0,1.0,24.9751,121.269826,9.0,0,AI-1003WN,桃園市桃園區永豐高中附設國中,30.0,33.0,19.0,65.0,22.6,2024-03-21T13:30:58Z
19,13:36:39,桃園市八德區永豐路609號,桃園市市立永豐高中附設國中(2019),AirBox,taoyuan,2024-03-21,08BEAC0A01AA,v1.06,2.0,1.0,24.9751,121.269826,9.0,0,AI-1003WN,桃園市桃園區永豐高中附設國中,28.0,29.0,19.0,65.0,22.6,2024-03-21T13:36:39Z
20,13:42:20,桃園市八德區永豐路609號,桃園市市立永豐高中附設國中(2019),AirBox,taoyuan,2024-03-21,08BEAC0A01AA,v1.06,2.0,1.0,24.9751,121.269826,9.0,0,AI-1003WN,桃園市桃園區永豐高中附設國中,24.0,26.0,17.0,65.0,22.6,2024-03-21T13:42:20Z
21,13:48:02,桃園市八德區永豐路609號,桃園市市立永豐高中附設國中(2019),AirBox,taoyuan,2024-03-21,08BEAC0A01AA,v1.06,2.0,1.0,24.9751,121.269826,9.0,0,AI-1003WN,桃園市桃園區永豐高中附設國中,23.0,24.0,16.0,65.0,22.6,2024-03-21T13:48:02Z
22,13:53:44,桃園市八德區永豐路609號,桃園市市立永豐高中附設國中(2019),AirBox,taoyuan,2024-03-21,08BEAC0A01AA,v1.06,2.0,1.0,24.9751,121.269826,9.0,0,AI-1003WN,桃園市桃園區永豐高中附設國中,24.0,26.0,17.0,65.0,22.6,2024-03-21T13:53:44Z
23,13:59:24,桃園市八德區永豐路609號,桃園市市立永豐高中附設國中(2019),AirBox,taoyuan,2024-03-21,08BEAC0A01AA,v1.06,2.0,1.0,24.9751,121.269826,9.0,0,AI-1003WN,桃園市桃園區永豐高中附設國中,24.0,25.0,16.0,65.0,22.5,2024-03-21T13:59:24Z
24,14:05:06,桃園市八德區永豐路609號,桃園市市立永豐高中附設國中(2019),AirBox,taoyuan,2024-03-21,08BEAC0A01AA,v1.06,2.0,1.0,24.9751,121.269826,9.0,0,AI-1003WN,桃園市桃園區永豐高中附設國中,23.0,24.0,16.0,66.0,22.5,2024-03-21T14:05:06Z
25,14:10:47,桃園市八德區永豐路609號,桃園市市立永豐高中附設國中(2019),AirBox,taoyuan,2024-03-21,08BEAC0A01AA,v1.06,2.0,1.0,24.9751,121.269826,9.0,0,AI-1003WN,桃園市桃園區永豐高中附設國中,25.0,26.0,17.0,66.0,22.5,2024-03-21T14:10:47Z
26,14:16:28,桃園市八德區永豐路609號,桃園市市立永豐高中附設國中(2019),AirBox,taoyuan,2024-03-21,08BEAC0A01AA,v1.06,2.0,1.0,24.9751,121.269826,9.0,0,AI-1003WN,桃園市桃園區永豐高中附設國中,21.0,22.0,16.0,66.0,22.2,2024-03-21T14:16:28Z
27,14:22:11,桃園市八德區永豐路609號,桃園市市立永豐高中附設國中(2019),AirBox,taoyuan,2024-03-21,08BEAC0A01AA,v1.06,2.0,1.0,24.9751,121.269826,9.0,0,AI-1003WN,桃園市桃園區永豐高中附設國中,22.0,23.0,16.0,67.0,22.2,2024-03-21T14:22:11Z
28,14:27:54,桃園市八德區永豐路609號,桃園市市立永豐高中附設國中(2019),AirBox,taoyuan,2024-03-21,08BEAC0A01AA,v1.06,2.0,1.0,24.9751,121.269826,9.0,0,AI-1003WN,桃園市桃園區永豐高中附設國中,23.0,24.0,16.0,67.0,22.5,2024-03-21T14:27:54Z
29,14:33:36,桃園市八德區永豐路609號,桃園市市立永豐高中附設國中(2019),AirBox,taoyuan,2024-03-21,08BEAC0A01AA,v1.06,2.0,1.0,24.9751,121.269826,9.0,0,AI-1003WN,桃園市桃園區永豐高中附設國中,22.0,23.0,16.0,67.0,22.6,2024-03-21T14:33:36Z
30,14:39:18,桃園市八德區永豐路609號,桃園市市立永豐高中附設國中(2019),AirBox,taoyuan,2024-03-21,08BEAC0A01AA,v1.06,2.0,1.0,24.9751,121.269826,9.0,0,AI-1003WN,桃園市桃園區永豐高中附設國中,22.0,23.0,15.0,66.0,22.7,2024-03-21T14:39:18Z
31,14:45:01,桃園市八德區永豐路609號,桃園市市立永豐高中附設國中(2019),AirBox,taoyuan,2024-03-21,08BEAC0A01AA,v1.06,2.0,1.0,24.9751,121.269826,9.0,0,AI-1003WN,桃園市桃園區永豐高中附設國中,24.0,25.0,17.0,67.0,22.6,2024-03-21T14:45:01Z
32,14:50:43,桃園市八德區永豐路609號,桃園市市立永豐高中附設國中(2019),AirBox,taoyuan,2024-03-21,08BEAC0A01AA,v1.06,2.0,1.0,24.9751,121.269826,9.0,0,AI-1003WN,桃園市桃園區永豐高中附設國中,29.0,31.0,20.0,67.0,22.6,2024-03-21T14:50:43Z
33,14:56:26,桃園市八德區永豐路609號,桃園市市立永豐高中附設國中(2019),AirBox,taoyuan,2024-03-21,08BEAC0A01AA,v1.06,2.0,1.0,24.9751,121.269826,9.0,0,AI-1003WN,桃園市桃園區永豐高中附設國中,30.0,33.0,21.0,68.0,22.6,2024-03-21T14:56:26Z
34,15:02:09,桃園市八德區永豐路609號,桃園市市立永豐高中附設國中(2019),AirBox,taoyuan,2024-03-21,08BEAC0A01AA,v1.06,2.0,1.0,24.9751,121.269826,9.0,0,AI-1003WN,桃園市桃園區永豐高中附設國中,31.0,33.0,21.0,68.0,22.5,2024-03-21T15:02:09Z
35,15:07:54,桃園市八德區永豐路609號,桃園市市立永豐高中附設國中(2019),AirBox,taoyuan,2024-03-21,08BEAC0A01AA,v1.06,2.0,1.0,24.9751,121.269826,9.0,0,AI-1003WN,桃園市桃園區永豐高中附設國中,36.0,42.0,24.0,68.0,22.6,2024-03-21T15:07:54Z
36,15:13:37,桃園市八德區永豐路609號,桃園市市立永豐高中附設國中(2019),AirBox,taoyuan,2024-03-21,08BEAC0A01AA,v1.06,2.0,1.0,24.9751,121.269826,9.0,0,AI-1003WN,桃園市桃園區永豐高中附設國中,31.0,34.0,21.0,68.0,22.5,2024-03-21T15:13:37Z
37,15:19:19,桃園市八德區永豐路609號,桃園市市立永豐高中附設國中(2019),AirBox,taoyuan,2024-03-21,08BEAC0A01AA,v1.06,2.0,1.0,24.9751,121.269826,9.0,0,AI-1003WN,桃園市桃園區永豐高中附設國中,28.0,30.0,20.0,68.0,22.5,2024-03-21T15:19:19Z
38,15:25:01,桃園市八德區永豐路609號,桃園市市立永豐高中附設國中(2019),AirBox,taoyuan,2024-03-21,08BEAC0A01AA,v1.06,2.0,1.0,24.9751,121.269826,9.0,0,AI-1003WN,桃園市桃園區永豐高中附設國中,28.0,29.0,19.0,68.0,22.3,2024-03-21T15:25:01Z
39,15:30:42,桃園市八德區永豐路609號,桃園市市立永豐高中附設國中(2019),AirBox,taoyuan,2024-03-21,08BEAC0A01AA,v1.06,2.0,1.0,24.9751,121.269826,9.0,0,AI-1003WN,桃園市桃園區永豐高中附設國中,27.0,29.0,19.0,68.0,22.5,2024-03-21T15:30:42Z
40,15:36:23,桃園市八德區永豐路609號,桃園市市立永豐高中附設國中(2019),AirBox,taoyuan,2024-03-21,08BEAC0A01AA,v1.06,2.0,1.0,24.9751,121.269826,9.0,0,AI-1003WN,桃園市桃園區永豐高中附設國中,27.0,28.0,19.0,68.0,22.6,2024-03-21T15:36:23Z
41,15:42:04,桃園市八德區永豐路609號,桃園市市立永豐高中附設國中(2019),AirBox,taoyuan,2024-03-21,08BEAC0A01AA,v1.06,2.0,1.0,24.9751,121.269826,9.0,0,AI-1003WN,桃園市桃園區永豐高中附設國中,27.0,27.0,19.0,68.0,22.5,2024-03-21T15:42:04Z
42,15:47:46,桃園市八德區永豐路609號,桃園市市立永豐高中附設國中(2019),AirBox,taoyuan,2024-03-21,08BEAC0A01AA,v1.06,2.0,1.0,24.9751,121.269826,9.0,0,AI-1003WN,桃園市桃園區永豐高中附設國中,26.0,27.0,18.0,68.0,22.6,2024-03-21T15:47:46Z
43,15:53:26,桃園市八德區永豐路609號,桃園市市立永豐高中附設國中(2019),AirBox,taoyuan,2024-03-21,08BEAC0A01AA,v1.06,2.0,1.0,24.9751,121.269826,9.0,0,AI-1003WN,桃園市桃園區永豐高中附設國中,28.0,29.0,19.0,68.0,22.6,2024-03-21T15:53:26Z
44,15:59:08,桃園市八德區永豐路609號,桃園市市立永豐高中附設國中(2019),AirBox,taoyuan,2024-03-21,08BEAC0A01AA,v1.06,2.0,1.0,24.9751,121.269826,9.0,0,AI-1003WN,桃園市桃園區永豐高中附設國中,30.0,33.0,21.0,69.0,22.5,2024-03-21T15:59:08Z
45,16:04:51,桃園市八德區永豐路609號,桃園市市立永豐高中附設國中(2019),AirBox,taoyuan,2024-03-21,08BEAC0A01AA,v1.06,2.0,1.0,24.9751,121.269826,9.0,0,AI-1003WN,桃園市桃園區永豐高中附設國中,31.0,34.0,21.0,69.0,22.5,2024-03-21T16:04:51Z
46,16:10:31,桃園市八德區永豐路609號,桃園市市立永豐高中附設國中(2019),AirBox,taoyuan,2024-03-21,08BEAC0A01AA,v1.06,2.0,1.0,24.9751,121.269826,9.0,0,AI-1003WN,桃園市桃園區永豐高中附設國中,31.0,34.0,21.0,70.0,22.2,2024-03-21T16:10:31Z
47,16:16:12,桃園市八德區永豐路609號,桃園市市立永豐高中附設國中(2019),AirBox,taoyuan,2024-03-21,08BEAC0A01AA,v1.06,2.0,1.0,24.9751,121.269826,9.0,0,AI-1003WN,桃園市桃園區永豐高中附設國中,30.0,32.0,20.0,70.0,22.1,2024-03-21T16:16:12Z
48,16:21:54,桃園市八德區永豐路609號,桃園市市立永豐高中附設國中(2019),AirBox,taoyuan,2024-03-21,08BEAC0A01AA,v1.06,2.0,1.0,24.9751,121.269826,9.0,0,AI-1003WN,桃園市桃園區永豐高中附設國中,29.0,32.0,20.0,70.0,22.2,2024-03-21T16:21:54Z
49,16:27:35,桃園市八德區永豐路609號,桃園市市立永豐高中附設國中(2019),AirBox,taoyuan,2024-03-21,08BEAC0A01AA,v1.06,2.0,1.0,24.9751,121.269826,9.0,0,AI-1003WN,桃園市桃園區永豐高中附設國中,29.0,31.0,20.0,70.0,22.3,2024-03-21T16:27:35Z
50,16:33:17,桃園市八德區永豐路609號,桃園市市立永豐高中附設國中(2019),AirBox,taoyuan,2024-03-21,08BEAC0A01AA,v1.06,2.0,1.0,24.9751,121.269826,9.0,0,AI-1003WN,桃園市桃園區永豐高中附設國中,28.0,30.0,19.0,70.0,22.5,2024-03-21T16:33:17Z
51,16:38:58,桃園市八德區永豐路609號,桃園市市立永豐高中附設國中(2019),AirBox,taoyuan,2024-03-21,08BEAC0A01AA,v1.06,2.0,1.0,24.9751,121.269826,9.0,0,AI-1003WN,桃園市桃園區永豐高中附設國中,31.0,33.0,21.0,70.0,22.5,2024-03-21T16:38:58Z
52,16:44:39,桃園市八德區永豐路609號,桃園市市立永豐高中附設國中(2019),AirBox,taoyuan,2024-03-21,08BEAC0A01AA,v1.06,2.0,1.0,24.9751,121.269826,9.0,0,AI-1003WN,桃園市桃園區永豐高中附設國中,31.0,33.0,21.0,70.0,22.5,2024-03-21T16:44:39Z
53,16:50:20,桃園市八德區永豐路609號,桃園市市立永豐高中附設國中(2019),AirBox,taoyuan,2024-03-21,08BEAC0A01AA,v1.06,2.0,1.0,24.9751,121.269826,9.0,0,AI-1003WN,桃園市桃園區永豐高中附設國中,32.0,36.0,22.0,70.0,22.3,2024-03-21T16:50:20Z
54,16:56:01,桃園市八德區永豐路609號,桃園市市立永豐高中附設國中(2019),AirBox,taoyuan,2024-03-21,08BEAC0A01AA,v1.06,2.0,1.0,24.9751,121.269826,9.0,0,AI-1003WN,桃園市桃園區永豐高中附設國中,33.0,37.0,22.0,72.0,22.1,2024-03-21T16:56:01Z
55,17:01:45,桃園市八德區永豐路609號,桃園市市立永豐高中附設國中(2019),AirBox,taoyuan,2024-03-21,08BEAC0A01AA,v1.06,2.0,1.0,24.9751,121.269826,9.0,0,AI-1003WN,桃園市桃園區永豐高中附設國中,33.0,38.0,22.0,72.0,21.8,2024-03-21T17:01:45Z
56,17:07:27,桃園市八德區永豐路609號,桃園市市立永豐高中附設國中(2019),AirBox,taoyuan,2024-03-21,08BEAC0A01AA,v1.06,2.0,1.0,24.9751,121.269826,9.0,0,AI-1003WN,桃園市桃園區永豐高中附設國中,33.0,38.0,22.0,72.0,22.0,2024-03-21T17:07:27Z
57,17:13:07,桃園市八德區永豐路609號,桃園市市立永豐高中附設國中(2019),AirBox,taoyuan,2024-03-21,08BEAC0A01AA,v1.06,2.0,1.0,24.9751,121.269826,9.0,0,AI-1003WN,桃園市桃園區永豐高中附設國中,32.0,36.0,22.0,72.0,22.1,2024-03-21T17:13:07Z
58,17:18:49,桃園市八德區永豐路609號,桃園市市立永豐高中附設國中(2019),AirBox,taoyuan,2024-03-21,08BEAC0A01AA,v1.06,2.0,1.0,24.9751,121.269826,9.0,0,AI-1003WN,桃園市桃園區永豐高中附設國中,34.0,38.0,22.0,73.0,22.0,2024-03-21T17:18:49Z
59,17:24:29,桃園市八德區永豐路609號,桃園市市立永豐高中附設國中(2019),AirBox,taoyuan,2024-03-21,08BEAC0A01AA,v1.06,2.0,1.0,24.9751,121.269826,9.0,0,AI-1003WN,桃園市桃園區永豐高中附設國中,34.0,39.0,23.0,73.0,21.8,2024-03-21T17:24:29Z
60,17:30:11,桃園市八德區永豐路609號,桃園市市立永豐高中附設國中(2019),AirBox,taoyuan,2024-03-21,08BEAC0A01AA,v1.06,2.0,1.0,24.9751,121.269826,9.0,0,AI-1003WN,桃園市桃園區永豐高中附設國中,34.0,39.0,23.0,72.0,22.0,2024-03-21T17:30:11Z
61,17:35:53,桃園市八德區永豐路609號,桃園市市立永豐高中附設國中(2019),AirBox,taoyuan,2024-03-21,08BEAC0A01AA,v1.06,2.0,1.0,24.9751,121.269826,9.0,0,AI-1003WN,桃園市桃園區永豐高中附設國中,35.0,40.0,23.0,72.0,22.0,2024-03-21T17:35:53Z
62,17:41:33,桃園市八德區永豐路609號,桃園市市立永豐高中附設國中(2019),AirBox,taoyuan,2024-03-21,08BEAC0A01AA,v1.06,2.0,1.0,24.9751,121.269826,9.0,0,AI-1003WN,桃園市桃園區永豐高中附設國中,37.0,43.0,25.0,73.0,22.1,2024-03-21T17:41:33Z
63,17:47:15,桃園市八德區永豐路609號,桃園市市立永豐高中附設國中(2019),AirBox,taoyuan,2024-03-21,08BEAC0A01AA,v1.06,2.0,1.0,24.9751,121.269826,9.0,0,AI-1003WN,桃園市桃園區永豐高中附設國中,36.0,43.0,24.0,73.0,22.0,2024-03-21T17:47:15Z
64,17:52:56,桃園市八德區永豐路609號,桃園市市立永豐高中附設國中(2019),AirBox,taoyuan,2024-03-21,08BEAC0A01AA,v1.06,2.0,1.0,24.9751,121.269826,9.0,0,AI-1003WN,桃園市桃園區永豐高中附設國中,36.0,42.0,24.0,73.0,22.1,2024-03-21T17:52:56Z
65,17:58:38,桃園市八德區永豐路609號,桃園市市立永豐高中附設國中(2019),AirBox,taoyuan,2024-03-21,08BEAC0A01AA,v1.06,2.0,1.0,24.9751,121.269826,9.0,0,AI-1003WN,桃園市桃園區永豐高中附設國中,35.0,41.0,24.0,72.0,22.2,2024-03-21T17:58:38Z
66,18:04:20,桃園市八德區永豐路609號,桃園市市立永豐高中附設國中(2019),AirBox,taoyuan,2024-03-21,08BEAC0A01AA,v1.06,2.0,1.0,24.9751,121.269826,9.0,0,AI-1003WN,桃園市桃園區永豐高中附設國中,36.0,43.0,24.0,72.0,22.2,2024-03-21T18:04:20Z
67,18:10:48,桃園市八德區永豐路609號,桃園市市立永豐高中附設國中(2019),AirBox,taoyuan,2024-03-21,08BEAC0A01AA,v1.06,2.0,1.0,24.9751,121.269826,9.0,0,AI-1003WN,桃園市桃園區永豐高中附設國中,34.0,39.0,23.0,72.0,22.3,2024-03-21T18:10:48Z
68,18:16:30,桃園市八德區永豐路609號,桃園市市立永豐高中附設國中(2019),AirBox,taoyuan,2024-03-21,08BEAC0A01AA,v1.06,2.0,1.0,24.9751,121.269826,9.0,0,AI-1003WN,桃園市桃園區永豐高中附設國中,34.0,40.0,23.0,72.0,22.3,2024-03-21T18:16:30Z
69,18:22:11,桃園市八德區永豐路609號,桃園市市立永豐高中附設國中(2019),AirBox,taoyuan,2024-03-21,08BEAC0A01AA,v1.06,2.0,1.0,24.9751,121.269826,9.0,0,AI-1003WN,桃園市桃園區永豐高中附設國中,33.0,37.0,22.0,72.0,22.5,2024-03-21T18:22:11Z
70,18:27:52,桃園市八德區永豐路609號,桃園市市立永豐高中附設國中(2019),AirBox,taoyuan,2024-03-21,08BEAC0A01AA,v1.06,2.0,1.0,24.9751,121.269826,9.0,0,AI-1003WN,桃園市桃園區永豐高中附設國中,35.0,40.0,23.0,72.0,22.2,2024-03-21T18:27:52Z
71,18:33:34,桃園市八德區永豐路609號,桃園市市立永豐高中附設國中(2019),AirBox,taoyuan,2024-03-21,08BEAC0A01AA,v1.06,2.0,1.0,24.9751,121.269826,9.0,0,AI-1003WN,桃園市桃園區永豐高中附設國中,35.0,40.0,23.0,72.0,22.0,2024-03-21T18:33:34Z
72,18:39:16,桃園市八德區永豐路609號,桃園市市立永豐高中附設國中(2019),AirBox,taoyuan,2024-03-21,08BEAC0A01AA,v1.06,2.0,1.0,24.9751,121.269826,9.0,0,AI-1003WN,桃園市桃園區永豐高中附設國中,34.0,40.0,23.0,73.0,21.8,2024-03-21T18:39:16Z
73,18:44:56,桃園市八德區永豐路609號,桃園市市立永豐高中附設國中(2019),AirBox,taoyuan,2024-03-21,08BEAC0A01AA,v1.06,2.0,1.0,24.9751,121.269826,9.0,0,AI-1003WN,桃園市桃園區永豐高中附設國中,36.0,41.0,24.0,74.0,21.6,2024-03-21T18:44:56Z
74,18:50:37,桃園市八德區永豐路609號,桃園市市立永豐高中附設國中(2019),AirBox,taoyuan,2024-03-21,08BEAC0A01AA,v1.06,2.0,1.0,24.9751,121.269826,9.0,0,AI-1003WN,桃園市桃園區永豐高中附設國中,36.0,42.0,24.0,75.0,21.6,2024-03-21T18:50:37Z
75,18:56:20,桃園市八德區永豐路609號,桃園市市立永豐高中附設國中(2019),AirBox,taoyuan,2024-03-21,08BEAC0A01AA,v1.06,2.0,1.0,24.9751,121.269826,9.0,0,AI-1003WN,桃園市桃園區永豐高中附設國中,37.0,44.0,25.0,76.0,21.7,2024-03-21T18:56:20Z
76,19:02:02,桃園市八德區永豐路609號,桃園市市立永豐高中附設國中(2019),AirBox,taoyuan,2024-03-21,08BEAC0A01AA,v1.06,2.0,1.0,24.9751,121.269826,9.0,0,AI-1003WN,桃園市桃園區永豐高中附設國中,40.0,47.0,27.0,77.0,21.7,2024-03-21T19:02:02Z
77,19:07:43,桃園市八德區永豐路609號,桃園市市立永豐高中附設國中(2019),AirBox,taoyuan,2024-03-21,08BEAC0A01AA,v1.06,2.0,1.0,24.9751,121.269826,9.0,0,AI-1003WN,桃園市桃園區永豐高中附設國中,43.0,52.0,28.0,78.0,21.6,2024-03-21T19:07:43Z
78,19:13:25,桃園市八德區永豐路609號,桃園市市立永豐高中附設國中(2019),AirBox,taoyuan,2024-03-21,08BEAC0A01AA,v1.06,2.0,1.0,24.9751,121.269826,9.0,0,AI-1003WN,桃園市桃園區永豐高中附設國中,43.0,51.0,28.0,79.0,21.6,2024-03-21T19:13:25Z
79,19:19:07,桃園市八德區永豐路609號,桃園市市立永豐高中附設國中(2019),AirBox,taoyuan,2024-03-21,08BEAC0A01AA,v1.06,2.0,1.0,24.9751,121.269826,9.0,0,AI-1003WN,桃園市桃園區永豐高中附設國中,43.0,53.0,28.0,79.0,21.5,2024-03-21T19:19:07Z
80,19:24:47,桃園市八德區永豐路609號,桃園市市立永豐高中附設國中(2019),AirBox,taoyuan,2024-03-21,08BEAC0A01AA,v1.06,2.0,1.0,24.9751,121.269826,9.0,0,AI-1003WN,桃園市桃園區永豐高中附設國中,43.0,52.0,28.0,80.0,21.6,2024-03-21T19:24:47Z
81,19:30:28,桃園市八德區永豐路609號,桃園市市立永豐高中附設國中(2019),AirBox,taoyuan,2024-03-21,08BEAC0A01AA,v1.06,2.0,1.0,24.9751,121.269826,9.0,0,AI-1003WN,桃園市桃園區永豐高中附設國中,45.0,55.0,29.0,80.0,21.5,2024-03-21T19:30:28Z
82,19:36:09,桃園市八德區永豐路609號,桃園市市立永豐高中附設國中(2019),AirBox,taoyuan,2024-03-21,08BEAC0A01AA,v1.06,2.0,1.0,24.9751,121.269826,9.0,0,AI-1003WN,桃園市桃園區永豐高中附設國中,44.0,54.0,28.0,80.0,21.3,2024-03-21T19:36:09Z
83,19:41:51,桃園市八德區永豐路609號,桃園市市立永豐高中附設國中(2019),AirBox,taoyuan,2024-03-21,08BEAC0A01AA,v1.06,2.0,1.0,24.9751,121.269826,9.0,0,AI-1003WN,桃園市桃園區永豐高中附設國中,45.0,55.0,29.0,81.0,21.2,2024-03-21T19:41:51Z
84,19:47:32,桃園市八德區永豐路609號,桃園市市立永豐高中附設國中(2019),AirBox,taoyuan,2024-03-21,08BEAC0A01AA,v1.06,2.0,1.0,24.9751,121.269826,9.0,0,AI-1003WN,桃園市桃園區永豐高中附設國中,45.0,55.0,29.0,81.0,21.2,2024-03-21T19:47:32Z
85,19:53:14,桃園市八德區永豐路609號,桃園市市立永豐高中附設國中(2019),AirBox,taoyuan,2024-03-21,08BEAC0A01AA,v1.06,2.0,1.0,24.9751,121.269826,9.0,0,AI-1003WN,桃園市桃園區永豐高中附設國中,46.0,57.0,30.0,81.0,21.3,2024-03-21T19:53:14Z
86,19:58:55,桃園市八德區永豐路609號,桃園市市立永豐高中附設國中(2019),AirBox,taoyuan,2024-03-21,08BEAC0A01AA,v1.06,2.0,1.0,24.9751,121.269826,9.0,0,AI-1003WN,桃園市桃園區永豐高中附設國中,45.0,55.0,29.0,80.0,21.5,2024-03-21T19:58:55Z
87,20:04:37,桃園市八德區永豐路609號,桃園市市立永豐高中附設國中(2019),AirBox,taoyuan,2024-03-21,08BEAC0A01AA,v1.06,2.0,1.0,24.9751,121.269826,9.0,0,AI-1003WN,桃園市桃園區永豐高中附設國中,45.0,55.0,29.0,79.0,21.6,2024-03-21T20:04:37Z
88,20:10:20,桃園市八德區永豐路609號,桃園市市立永豐高中附設國中(2019),AirBox,taoyuan,2024-03-21,08BEAC0A01AA,v1.06,2.0,1.0,24.9751,121.269826,9.0,0,AI-1003WN,桃園市桃園區永豐高中附設國中,43.0,52.0,28.0,78.0,21.7,2024-03-21T20:10:20Z
89,20:16:03,桃園市八德區永豐路609號,桃園市市立永豐高中附設國中(2019),AirBox,taoyuan,2024-03-21,08BEAC0A01AA,v1.06,2.0,1.0,24.9751,121.269826,9.0,0,AI-1003WN,桃園市桃園區永豐高中附設國中,41.0,49.0,27.0,79.0,21.5,2024-03-21T20:16:03Z
90,20:21:45,桃園市八德區永豐路609號,桃園市市立永豐高中附設國中(2019),AirBox,taoyuan,2024-03-21,08BEAC0A01AA,v1.06,2.0,1.0,24.9751,121.269826,9.0,0,AI-1003WN,桃園市桃園區永豐高中附設國中,43.0,52.0,28.0,79.0,21.3,2024-03-21T20:21:45Z
91,20:27:25,桃園市八德區永豐路609號,桃園市市立永豐高中附設國中(2019),AirBox,taoyuan,2024-03-21,08BEAC0A01AA,v1.06,2.0,1.0,24.9751,121.269826,9.0,0,AI-1003WN,桃園市桃園區永豐高中附設國中,43.0,51.0,28.0,79.0,21.3,2024-03-21T20:27:25Z
92,20:33:07,桃園市八德區永豐路609號,桃園市市立永豐高中附設國中(2019),AirBox,taoyuan,2024-03-21,08BEAC0A01AA,v1.06,2.0,1.0,24.9751,121.269826,9.0,0,AI-1003WN,桃園市桃園區永豐高中附設國中,42.0,51.0,27.0,79.0,21.3,2024-03-21T20:33:07Z
93,20:38:47,桃園市八德區永豐路609號,桃園市市立永豐高中附設國中(2019),AirBox,taoyuan,2024-03-21,08BEAC0A01AA,v1.06,2.0,1.0,24.9751,121.269826,9.0,0,AI-1003WN,桃園市桃園區永豐高中附設國中,41.0,49.0,27.0,79.0,21.3,2024-03-21T20:38:47Z
94,20:44:30,桃園市八德區永豐路609號,桃園市市立永豐高中附設國中(2019),AirBox,taoyuan,2024-03-21,08BEAC0A01AA,v1.06,2.0,1.0,24.9751,121.269826,9.0,0,AI-1003WN,桃園市桃園區永豐高中附設國中,41.0,49.0,26.0,79.0,21.3,2024-03-21T20:44:30Z
95,20:50:14,桃園市八德區永豐路609號,桃園市市立永豐高中附設國中(2019),AirBox,taoyuan,2024-03-21,08BEAC0A01AA,v1.06,2.0,1.0,24.9751,121.269826,9.0,0,AI-1003WN,桃園市桃園區永豐高中附設國中,41.0,49.0,26.0,79.0,21.3,2024-03-21T20:50:14Z
96,20:55:56,桃園市八德區永豐路609號,桃園市市立永豐高中附設國中(2019),AirBox,taoyuan,2024-03-21,08BEAC0A01AA,v1.06,2.0,1.0,24.9751,121.269826,9.0,0,AI-1003WN,桃園市桃園區永豐高中附設國中,40.0,48.0,26.0,78.0,21.5,2024-03-21T20:55:56Z
97,21:01:38,桃園市八德區永豐路609號,桃園市市立永豐高中附設國中(2019),AirBox,taoyuan,2024-03-21,08BEAC0A01AA,v1.06,2.0,1.0,24.9751,121.269826,9.0,0,AI-1003WN,桃園市桃園區永豐高中附設國中,40.0,48.0,26.0,78.0,21.6,2024-03-21T21:01:38Z
98,21:07:19,桃園市八德區永豐路609號,桃園市市立永豐高中附設國中(2019),AirBox,taoyuan,2024-03-21,08BEAC0A01AA,v1.06,2.0,1.0,24.9751,121.269826,9.0,0,AI-1003WN,桃園市桃園區永豐高中附設國中,40.0,49.0,26.0,77.0,21.7,2024-03-21T21:07:19Z
99,21:13:00,桃園市八德區永豐路609號,桃園市市立永豐高中附設國中(2019),AirBox,taoyuan,2024-03-21,08BEAC0A01AA,v1.06,2.0,1.0,24.9751,121.269826,9.0,0,AI-1003WN,桃園市桃園區永豐高中附設國中,42.0,50.0,26.0,78.0,21.7,2024-03-21T21:13:00Z
100,21:18:43,桃園市八德區永豐路609號,桃園市市立永豐高中附設國中(2019),AirBox,taoyuan,2024-03-21,08BEAC0A01AA,v1.06,2.0,1.0,24.9751,121.269826,9.0,0,AI-1003WN,桃園市桃園區永豐高中附設國中,41.0,49.0,27.0,78.0,21.7,2024-03-21T21:18:43Z
101,21:24:26,桃園市八德區永豐路609號,桃園市市立永豐高中附設國中(2019),AirBox,taoyuan,2024-03-21,08BEAC0A01AA,v1.06,2.0,1.0,24.9751,121.269826,9.0,0,AI-1003WN,桃園市桃園區永豐高中附設國中,42.0,50.0,27.0,78.0,21.7,2024-03-21T21:24:26Z
102,21:30:07,桃園市八德區永豐路609號,桃園市市立永豐高中附設國中(2019),AirBox,taoyuan,2024-03-21,08BEAC0A01AA,v1.06,2.0,1.0,24.9751,121.269826,9.0,0,AI-1003WN,桃園市桃園區永豐高中附設國中,42.0,50.0,27.0,78.0,21.7,2024-03-21T21:30:07Z
103,21:35:49,桃園市八德區永豐路609號,桃園市市立永豐高中附設國中(2019),AirBox,taoyuan,2024-03-21,08BEAC0A01AA,v1.06,2.0,1.0,24.9751,121.269826,9.0,0,AI-1003WN,桃園市桃園區永豐高中附設國中,42.0,50.0,27.0,78.0,21.7,2024-03-21T21:35:49Z
104,21:41:30,桃園市八德區永豐路609號,桃園市市立永豐高中附設國中(2019),AirBox,taoyuan,2024-03-21,08BEAC0A01AA,v1.06,2.0,1.0,24.9751,121.269826,9.0,0,AI-1003WN,桃園市桃園區永豐高中附設國中,42.0,51.0,27.0,79.0,21.6,2024-03-21T21:41:30Z
105,21:47:10,桃園市八德區永豐路609號,桃園市市立永豐高中附設國中(2019),AirBox,taoyuan,2024-03-21,08BEAC0A01AA,v1.06,2.0,1.0,24.9751,121.269826,9.0,0,AI-1003WN,桃園市桃園區永豐高中附設國中,41.0,49.0,27.0,79.0,21.5,2024-03-21T21:47:10Z
106,21:52:52,桃園市八德區永豐路609號,桃園市市立永豐高中附設國中(2019),AirBox,taoyuan,2024-03-21,08BEAC0A01AA,v1.06,2.0,1.0,24.9751,121.269826,9.0,0,AI-1003WN,桃園市桃園區永豐高中附設國中,40.0,49.0,26.0,78.0,21.6,2024-03-21T21:52:52Z
107,21:58:34,桃園市八德區永豐路609號,桃園市市立永豐高中附設國中(2019),AirBox,taoyuan,2024-03-21,08BEAC0A01AA,v1.06,2.0,1.0,24.9751,121.269826,9.0,0,AI-1003WN,桃園市桃園區永豐高中附設國中,41.0,49.0,26.0,79.0,21.6,2024-03-21T21:58:34Z
108,22:04:15,桃園市八德區永豐路609號,桃園市市立永豐高中附設國中(2019),AirBox,taoyuan,2024-03-21,08BEAC0A01AA,v1.06,2.0,1.0,24.9751,121.269826,9.0,0,AI-1003WN,桃園市桃園區永豐高中附設國中,42.0,50.0,27.0,79.0,21.6,2024-03-21T22:04:15Z
109,22:09:57,桃園市八德區永豐路609號,桃園市市立永豐高中附設國中(2019),AirBox,taoyuan,2024-03-21,08BEAC0A01AA,v1.06,2.0,1.0,24.9751,121.269826,9.0,0,AI-1003WN,桃園市桃園區永豐高中附設國中,43.0,52.0,28.0,80.0,21.5,2024-03-21T22:09:57Z
110,22:15:39,桃園市八德區永豐路609號,桃園市市立永豐高中附設國中(2019),AirBox,taoyuan,2024-03-21,08BEAC0A01AA,v1.06,2.0,1.0,24.9751,121.269826,9.0,0,AI-1003WN,桃園市桃園區永豐高中附設國中,44.0,54.0,28.0,80.0,21.5,2024-03-21T22:15:39Z
111,22:21:20,桃園市八德區永豐路609號,桃園市市立永豐高中附設國中(2019),AirBox,taoyuan,2024-03-21,08BEAC0A01AA,v1.06,2.0,1.0,24.9751,121.269826,9.0,0,AI-1003WN,桃園市桃園區永豐高中附設國中,43.0,52.0,27.0,80.0,21.5,2024-03-21T22:21:20Z
112,22:27:01,桃園市八德區永豐路609號,桃園市市立永豐高中附設國中(2019),AirBox,taoyuan,2024-03-21,08BEAC0A01AA,v1.06,2.0,1.0,24.9751,121.269826,9.0,0,AI-1003WN,桃園市桃園區永豐高中附設國中,42.0,50.0,27.0,80.0,21.3,2024-03-21T22:27:01Z
113,22:32:43,桃園市八德區永豐路609號,桃園市市立永豐高中附設國中(2019),AirBox,taoyuan,2024-03-21,08BEAC0A01AA,v1.06,2.0,1.0,24.9751,121.269826,9.0,0,AI-1003WN,桃園市桃園區永豐高中附設國中,42.0,50.0,27.0,80.0,21.3,2024-03-21T22:32:43Z
114,22:38:25,桃園市八德區永豐路609號,桃園市市立永豐高中附設國中(2019),AirBox,taoyuan,2024-03-21,08BEAC0A01AA,v1.06,2.0,1.0,24.9751,121.269826,9.0,0,AI-1003WN,桃園市桃園區永豐高中附設國中,43.0,52.0,28.0,80.0,21.3,2024-03-21T22:38:25Z
115,22:44:06,桃園市八德區永豐路609號,桃園市市立永豐高中附設國中(2019),AirBox,taoyuan,2024-03-21,08BEAC0A01AA,v1.06,2.0,1.0,24.9751,121.269826,9.0,0,AI-1003WN,桃園市桃園區永豐高中附設國中,44.0,53.0,28.0,80.0,21.3,2024-03-21T22:44:06Z
116,22:49:47,桃園市八德區永豐路609號,桃園市市立永豐高中附設國中(2019),AirBox,taoyuan,2024-03-21,08BEAC0A01AA,v1.06,2.0,1.0,24.9751,121.269826,9.0,0,AI-1003WN,桃園市桃園區永豐高中附設國中,46.0,56.0,30.0,80.0,21.3,2024-03-21T22:49:47Z
117,22:55:29,桃園市八德區永豐路609號,桃園市市立永豐高中附設國中(2019),AirBox,taoyuan,2024-03-21,08BEAC0A01AA,v1.06,2.0,1.0,24.9751,121.269826,9.0,0,AI-1003WN,桃園市桃園區永豐高中附設國中,48.0,59.0,31.0,81.0,21.3,2024-03-21T22:55:29Z
118,23:01:10,桃園市八德區永豐路609號,桃園市市立永豐高中附設國中(2019),AirBox,taoyuan,2024-03-21,08BEAC0A01AA,v1.06,2.0,1.0,24.9751,121.269826,9.0,0,AI-1003WN,桃園市桃園區永豐高中附設國中,49.0,60.0,32.0,80.0,21.3,2024-03-21T23:01:10Z
119,23:06:50,桃園市八德區永豐路609號,桃園市市立永豐高中附設國中(2019),AirBox,taoyuan,2024-03-21,08BEAC0A01AA,v1.06,2.0,1.0,24.9751,121.269826,9.0,0,AI-1003WN,桃園市桃園區永豐高中附設國中,49.0,60.0,31.0,81.0,21.3,2024-03-21T23:06:50Z
120,23:12:32,桃園市八德區永豐路609號,桃園市市立永豐高中附設國中(2019),AirBox,taoyuan,2024-03-21,08BEAC0A01AA,v1.06,2.0,1.0,24.9751,121.269826,9.0,0,AI-1003WN,桃園市桃園區永豐高中附設國中,48.0,58.0,31.0,81.0,21.3,2024-03-21T23:12:32Z
121,23:18:15,桃園市八德區永豐路609號,桃園市市立永豐高中附設國中(2019),AirBox,taoyuan,2024-03-21,08BEAC0A01AA,v1.06,2.0,1.0,24.9751,121.269826,9.0,0,AI-1003WN,桃園市桃園區永豐高中附設國中,47.0,58.0,30.0,80.0,21.5,2024-03-21T23:18:15Z